This is the latest recevied weather packets stored in our database for station/object K7KAR-2. If no packets are shown the sender has not sent any weather packets the latest 10 day(s).
| Time | Temp. | Humidity | Pressure | Rain* | Wind** | Luminosity | Snow |
|---|---|---|---|---|---|---|---|
| 1777578200 | 13.33° C | 10% | 1021.2 hPa | 0 mm | - | 771 W/m² | - |
| 1777577896 | 13.33° C | 10% | 1021.2 hPa | 0 mm | - | 797 W/m² | - |
| 1777577592 | 12.78° C | 10% | 1021.3 hPa | 0 mm | - | 797 W/m² | - |
| 1777577289 | 12.78° C | 10% | 1021.2 hPa | 0 mm | - | 791 W/m² | - |
| 1777576985 | 13.33° C | 10% | 1021.2 hPa | 0 mm | - | 795 W/m² | - |
| 1777576682 | 12.78° C | 10% | 1021.3 hPa | 0 mm | - | 804 W/m² | - |
| 1777576381 | 12.78° C | 10% | 1021.1 hPa | 0 mm | - | 812 W/m² | - |
| 1777576078 | 12.78° C | 10% | 1021.5 hPa | 0 mm | - | 808 W/m² | - |
| 1777575773 | 12.22° C | 10% | 1021.3 hPa | 0 mm | - | 793 W/m² | - |
| 1777575470 | 12.22° C | 10% | 1021.5 hPa | 0 mm | - | 811 W/m² | - |
| 1777575166 | 12.78° C | 10% | 1021.6 hPa | 0 mm | - | 819 W/m² | - |
| 1777574862 | 13.33° C | 10% | 1021.7 hPa | 0 mm | - | 826 W/m² | - |
| 1777574560 | 12.22° C | 10% | 1021.7 hPa | 0 mm | - | 814 W/m² | - |
| 1777574255 | 12.78° C | 10% | 1021.8 hPa | 0 mm | - | 827 W/m² | - |
| 1777573951 | 13.33° C | 10% | 1021.8 hPa | 0 mm | - | 823 W/m² | - |
| 1777573646 | 12.22° C | 10% | 1022 hPa | 0 mm | - | 829 W/m² | - |
| 1777573342 | 12.78° C | 10% | 1021.8 hPa | 0 mm | - | 828 W/m² | - |
| 1777573038 | 12.22° C | 10% | 1021.7 hPa | 0 mm | - | 820 W/m² | - |
| 1777572735 | 11.67° C | 10% | 1021.8 hPa | 0 mm | - | 814 W/m² | - |
| 1777572429 | 12.22° C | 10% | 1022 hPa | 0 mm | - | 806 W/m² | - |
| 1777572126 | 12.22° C | 10% | 1021.8 hPa | 0 mm | - | 791 W/m² | - |
| 1777571820 | 12.22° C | 10% | 1021.9 hPa | 0 mm | - | 818 W/m² | - |
| 1777571512 | 12.78° C | 10% | 1021.9 hPa | 0 mm | - | 837 W/m² | - |
| 1777571209 | 12.22° C | 10% | 1021.8 hPa | 0 mm | - | 844 W/m² | - |
| 1777570904 | 11.67° C | 10% | 1022.2 hPa | 0 mm | - | 845 W/m² | - |
* Rain latest hour (hover to see other rain measurements)
** Current wind speed in m/s (hover to see current wind gust speed)